Location: La Gen�te
(46.5500°N, 5.0437°E)
Time: 01:38:25
(UTC+00:00)

Daily predictions for brighter satellites

Satellite Brightness Start Highest point End
(mag) Time Altitude Azimuth Time Altitude Azimuth Time Altitude Azimuth
CENTAUR R/B 4.3 01:54:51 10° NW 02:01:59 37° NNE 02:09:54 10° E
Cosmos 2360 Rocket 4.5 02:10:47 10° NNW 02:22:23 - SE 02:12:08 17° N
ADEOS II 4.1 02:15:44 10° N 02:17:29 22° N 02:17:29 22° N
IDEFIX/ARIANE 42P 4.4 02:17:13 10° NNE 02:19:41 28° NNE 02:19:41 28° NNE
USA 234 3.9 02:19:36 10° ESE 02:24:09 47° E 02:24:09 47° E
Lacrosse 5 3.7 02:40:09 27° E 02:40:09 27° E 02:42:36 10° ESE
Cosmos 2082 Rocket 4.0 02:42:36 23° NNW 02:42:36 23° NNW 02:45:15 10° N
Cosmos 2333 Rocket 3.9 02:39:28 10° NNW 02:44:34 31° NE 02:49:39 10° ESE
MSX 4.4 02:39:35 10° NNE 02:44:10 53° NE 02:44:10 53° NE
Cosmos 2219 Rocket 3.8 02:54:29 10° NNW 02:59:36 33° NE 03:04:41 10° ESE
CZ-2C R/B 3.6 02:57:33 10° NNE 03:01:53 35° E 03:02:02 35° E
CZ-2D R/B 4.5 03:06:25 10° NNW 03:06:50 11° NNW 03:06:50 11° NNW
USA 238 DEB 4.0 03:06:33 10° NW 03:13:48 73° NE 03:21:21 10° SE
USA 238 4.0 03:06:40 10° NW 03:13:54 73° NE 03:21:27 10° SE
GEOS 3 Rocket 4.5 03:09:23 10° NNE 03:13:38 41° NNW 03:13:38 41° NNW
COSMOS 2428 4.1 03:10:43 10° NNW 03:16:01 37° NE 03:21:18 10° ESE
ATLAS 5 CENTAUR R/B 3.8 03:19:17 14° SE 03:20:16 16° ESE 03:22:48 10° ENE
S3M 3.8 03:21:13 73° S 03:21:54 89° WNW 03:28:08 10° N
ARIANE 5 R/B 3.3 03:19:57 10° N 03:23:22 40° NNW 03:23:22 40° NNW
Cosmos 1745 Rocket 3.8 03:19:22 10° NNW 03:25:42 77° W 03:26:32 66° SSW
USA 267 3.5 03:28:03 10° NE 03:34:26 58° NNW 03:35:57 47° WNW
Cosmos 2322 3.9 03:31:07 10° NNW 03:36:50 72° ENE 03:42:28 10° SSE
Cosmos 1709 Rocket 4.1 03:31:03 10° N 03:37:29 80° E 03:43:51 10° SSE
H-2A R/B 3.6 03:38:13 10° SE 03:42:02 34° ENE 03:45:48 10° N
NOSS 3-2 (A) 3.9 03:35:00 10° NW 03:42:32 72° SW 03:51:03 10° SSE
Spot 4 Rocket 4.1 03:41:34 10° N 03:46:28 56° WNW 03:46:28 56° WNW
COSMOS 2487 3.5 03:50:12 41° NNE 03:50:12 41° NNE 03:52:33 10° NNE
Cosmos 2344 3.4 03:46:42 43° SW 03:49:26 77° NW 03:57:30 10° NE
Cosmos 1833 4.1 03:48:29 58° WSW 03:49:29 73° WNW 03:55:09 10° NNE
CENTAUR R/B 3.1 03:45:29 10° NW 03:53:38 85° SW 04:02:33 10° SSE
Cosmos 2251 Rocket 3.4 03:53:53 47° SSW 03:55:31 85° WNW 04:00:56 10° NNE
Cosmos 614 Rocket 4.2 03:54:14 27° S 03:57:05 69° ESE 04:02:17 10° NNE
ADEOS II 4.2 03:57:35 10° NNW 03:58:26 12° NW 03:58:26 12° NW
Cosmos 2360 Rocket 4.0 04:04:24 15° S 04:04:24 15° S 04:05:18 10° S
ISS -3.2 04:00:41 55° NNE 04:00:41 55° NNE 04:03:51 10° E
Cosmos 1933 4.1 03:58:06 14° SSE 04:01:24 51° E 04:05:21 10° NNE
IDEFIX/ARIANE 42P 4.0 03:57:34 10° N 04:00:30 21° NW 04:00:30 21° NW
Meteor 2-17 Rocket 4.3 03:56:47 10° NNW 04:02:51 80° W 04:08:54 10° S
ALOS 2.4 03:58:32 10° NNE 04:03:12 71° ESE 04:07:02 15° S
PAYLOAD A 4.1 03:58:09 10° N 04:03:23 60° WNW 04:05:04 41° SW
CZ-2C R/B 3.8 04:01:46 10° N 04:04:14 31° NNW 04:04:14 31° NNW
Cosmos 2237 Rocket 3.7 04:02:09 10° NNW 04:07:24 36° NE 04:12:34 10° ESE
Cosmos 2333 4.2 04:02:10 10° NNW 04:07:53 61° WSW 04:13:33 10° S
USA 234 3.6 04:03:17 10° SSE 04:09:23 41° SW 04:11:34 32° W
Cosmos 407 Rocket 4.2 04:07:10 10° S 04:12:11 53° ESE 04:17:11 10° NNE
CZ-4C R/B 2.3 04:10:13 24° SSW 04:13:08 65° ESE 04:18:56 10° NE
Cosmos 883 Rocket 4.5 04:11:11 25° SSW 04:14:43 57° WNW 04:20:46 10° N
PSLV R/B 3.5 04:11:30 10° N 04:15:50 62° WNW 04:17:21 37° SW
USA 276 2.1 04:16:02 75° NNW 04:16:02 75° NNW 04:19:15 10° ENE
Lacrosse 5 2.1 04:19:25 37° W 04:20:43 45° SW 04:25:30 10° SSE
NOSS 3-4 (A) 3.6 04:16:30 16° SSW 04:21:10 67° ESE 04:27:23 10° NE
NOSS 3-4 (C) 3.7 04:16:34 16° SSW 04:21:16 66° SE 04:27:29 10° NE
Cosmos 192 4.3 04:18:45 10° NNW 04:23:44 87° WSW 04:28:41 10° SSE
Cosmos 1328 Rocket 4.5 04:20:15 10° SSE 04:24:23 48° E 04:28:33 10° NNE
NOSS 3-2 (C) 4.0 04:17:03 10° NW 04:24:33 65° WSW 04:33:01 10° SSE
Cosmos 2221 4.3 04:30:18 16° NW 04:30:18 16° NW 04:32:08 10° NNW
Cosmos 2333 Rocket 2.3 04:23:32 10° NW 04:29:07 52° WSW 04:34:40 10° S
Cosmos 1484 Rocket 2.6 04:29:07 10° N 04:32:48 66° WNW 04:35:27 18° SSW
Cosmos 1805 Rocket 4.1 04:29:27 10° NNW 04:33:34 37° W 04:37:39 10° SSW
Cosmos 1437 Rocket 3.2 04:29:58 10° S 04:34:00 67° E 04:37:59 10° NNE
Cosmos 1470 Rocket 4.4 04:31:16 10° N 04:35:32 52° ENE 04:39:45 10° SSE
SJ-6F 4.4 04:32:11 10° N 04:36:20 63° WNW 04:40:19 11° SSW
Landsat 5 3.7 04:32:47 10° SSW 04:36:21 37° W 04:40:00 10° NNW
ATLAS 2AS CENTAUR R/B 3.5 04:28:38 10° SSW 04:36:25 64° ESE 04:44:06 10° NE
CZ-2C R/B 3.2 04:35:57 10° N 04:40:01 29° WNW 04:41:25 24° W
Cosmos 2315 Rocket 4.2 04:34:41 12° SW 04:40:12 45° WNW 04:46:09 10° N
CZ-4B R/B 2.2 04:37:32 10° SSE 04:40:30 47° ENE 04:43:27 10° N
COSMO-SKYMED 1 2.9 04:37:09 10° SSE 04:41:27 71° ENE 04:45:48 10° N
Cosmos 2297 Rocket 3.7 04:36:41 10° S 04:41:52 38° ESE 04:47:03 10° NE
Cosmos 2219 Rocket 2.4 04:38:19 10° NW 04:43:42 46° WSW 04:49:05 10° S
Cosmos 1782 2.8 04:40:00 10° S 04:43:56 81° E 04:47:55 10° N
CBERS 1 LM4 rocket 4.4 04:43:09 10° N 04:47:52 59° WNW 04:52:29 10° SSW
Cosmos 1606 4.0 04:47:57 22° WNW 04:48:06 22° WNW 04:51:11 10° NNW
Cosmos 1140 Rocket 3.4 04:44:20 10° SSW 04:49:32 87° WNW 04:54:46 10° NNE
Sich 1 3.7 04:46:15 10° NNW 04:50:11 32° W 04:54:05 10° SSW
Cosmos 1980 3.9 04:46:49 10° NNW 04:52:31 77° ENE 04:58:11 10° SSE
Cosmos 1500 3.8 04:48:49 10° N 04:52:36 60° E 04:56:22 10° SSE
Meteor 1-26 Rocket 4.3 04:46:57 10° SSW 04:52:41 82° W 04:58:39 10° N
METEOR-M 4.2 04:48:38 10° N 04:53:52 57° WNW 04:59:05 10° SSW
ERS-2 4.1 04:51:42 10° SE 04:54:57 32° ENE 04:58:14 10° N
Cosmos 1933 Rocket 4.3 04:51:33 10° N 04:55:58 57° ENE 05:00:21 10° SSE
Cosmos 1666 Rocket 3.8 04:53:15 10° NNW 04:57:25 43° W 05:01:35 10° SSW
Cosmos 2074 Rocket 3.9 04:52:07 10° NNW 04:58:16 67° W 05:04:24 10° S
COSMOS 2428 3.1 04:55:01 10° NW 05:00:20 40° WSW 05:05:37 10° S
MOS 1 Rocket 3.1 04:56:14 10° S 05:00:37 69° W 05:05:17 10° NNW
SeaSat 1 2.4 04:55:55 10° SSE 05:00:50 72° WSW 05:05:48 10° NNW
Cosmos 1023 Rocket 4.4 04:56:08 10° SSW 05:01:18 68° WNW 05:06:27 10° NNE
BREEZE M DEB (TANK) 2.5 04:59:34 17° WNW 05:01:43 89° N 05:09:24 10° ESE
BREEZE-M DEB (TANK) 2.9 05:00:38 15° W 05:03:58 49° N 05:06:17 10° ENE
ATLAS 5 CENTAUR R/B 1.5 05:00:51 14° SW 05:04:12 60° NW 05:08:42 10° NE
YAOGAN 6 4.0 05:02:11 10° NNE 05:05:32 40° E 05:08:49 10° S
Cosmos 2154 Rocket 4.0 04:59:30 10° N 05:05:47 87° W 05:12:03 10° S
CZ-4B R/B 3.8 05:05:00 10° N 05:08:35 51° WNW 05:12:07 10° SSW
ATLAS 3B R/B 3.1 05:01:39 10° NW 05:08:38 71° NE 05:15:54 10° SE
ADEOS 3.6 05:04:01 10° N 05:09:11 62° WNW 05:14:19 10° SSW
Cosmos 1602 4.2 05:07:29 10° NNW 05:11:08 38° W 05:14:44 10° SSW
FENGYUN 3A 4.5 05:10:08 10° N 05:14:50 30° WNW 05:19:30 10° WSW
USA 267 4.2 05:10:54 10° ENE 05:16:45 37° N 05:22:36 10° WNW
H-2A R/B 3.0 05:14:38 10° SSW 05:18:04 24° W 05:21:28 10° NW
Cosmos 1151 Rocket 3.6 05:15:48 10° SW 05:19:46 36° WNW 05:23:45 10° N
Cosmos 2219 3.5 05:16:03 10° SSW 05:21:41 74° ESE 05:27:20 10° NNE
NOSS 0 Rocket 4.2 05:18:23 10° NW 05:24:16 48° WSW 05:30:10 10° S
Cosmos 1763 Rocket 4.0 05:19:48 10° NNW 05:25:01 64° ENE 05:30:07 10° SSE
Cosmos 2184 Rocket 4.3 05:19:09 10° NNW 05:25:06 44° W 05:31:05 10° SSW
Meteor 2-12 Rocket 4.4 05:19:24 10° NNW 05:25:32 71° W 05:31:39 10° S
Cosmos 1633 Rocket 4.0 05:24:43 10° NNW 05:28:21 26° W 05:31:59 10° SW
SKYMED 2 4.1 05:25:35 10° SSW 05:29:36 37° W 05:33:39 10° NNW
USA-17 4.4 05:28:50 10° SW 05:32:36 69° NW 05:35:43 10° NE
H-2A R/B 2.8 05:29:54 10° N 05:33:45 61° WNW 05:37:35 10° SSW
Cosmos 1242 Rocket 2.4 05:31:25 10° SSW 05:34:51 65° WNW 05:38:20 10° N
Cosmos 468 Rocket 4.1 05:32:12 10° NNW 05:37:26 85° ENE 05:42:34 10° SSE
